Flag for Nicaragua Weather past 2 weeks in Managua, Nicaragua

Now
93 °F

Scattered clouds.


Feels Like: 95 °F
Forecast: 73 / 96 °F
Wind: 14 mph from Southeast

Location: Managua A. C. Sandino

Current Time: Mar 26, 2015 at 1:34:16 PM

Latest Report: Mar 26, 2015 at 1:00 PM


Visibility: N/A

Pressure: 29.83 "Hg

Humidity: 39%

Dew point: 64 °F

Location of ManaguaLocation

Historic Weather in Managua — Graph

°F

Managua temperature yesterday

Maximum temperature yesterday: 95 °F (at 3:00 PM)
Minimum temperature yesterday: 73 °F (at 5:00 AM)
Average temperature yesterday: 85 °F

Past Weeks' High & Low Weather Summary

 TemperatureHumidityPressure
High95 °F (Mar 11, 1:00 PM)94% (Mar 19, 6:00 AM)30.01 "Hg (Mar 19, 6:00 AM)
Low68 °F (Mar 19, 6:00 AM)32% (Mar 16, 3:00 PM)29.71 "Hg (Mar 11, 3:00 PM)
Average84 °F58%29.88 "Hg
* Reported Mar 11 12:00 Noon — Mar 26 12:00 Noon, Managua, Weather by CustomWeather, © 2015

Note: Actual official high and low records may vary slightly from our data, if they occured in-between our weather recording intervals... More about our weather records

Advertising

Managua weather history for previous 24 hours

 ConditionsComfort  
Time TempWeatherWind HumidityBarometerVisibility
12:00 PM
Thu, Mar 26
91 °FScattered clouds.14 mph44%29.89 "HgN/A
11:00 AM91 °FScattered clouds.16 mph44%29.92 "HgN/A
10:00 AM88 °FPassing clouds.14 mph49%29.92 "HgN/A
9:00 AM84 °FPassing clouds.14 mph55%29.95 "HgN/A
8:00 AM81 °FPassing clouds.14 mph66%29.95 "HgN/A
7:00 AM77 °FPassing clouds.7 mph74%29.92 "HgN/A
6:00 AM73 °FPassing clouds.7 mph83%29.92 "HgN/A
5:00 AM73 °FPassing clouds.5 mph83%29.92 "HgN/A
4:00 AM75 °FClear.5 mph78%29.92 "Hg10 mi
1:00 AM79 °FClear.9 mph65%29.92 "Hg10 mi
12:00 AM79 °FClear.7 mph70%29.92 "Hg10 mi
11:00 PM
Wed, Mar 25
81 °FClear.9 mph70%29.92 "Hg10 mi
10:00 PM82 °FPassing clouds.12 mph62%29.92 "HgN/A
9:00 PM84 °FPassing clouds.12 mph58%29.92 "HgN/A
8:00 PM84 °FPassing clouds.12 mph58%29.89 "HgN/A
7:00 PM86 °FPassing clouds.12 mph52%29.86 "HgN/A
6:00 PM88 °FPassing clouds.12 mph49%29.83 "HgN/A
5:00 PM91 °FPassing clouds.12 mph44%29.83 "HgN/A
4:00 PM93 °FPassing clouds.12 mph41%29.83 "HgN/A
3:00 PM95 °FPassing clouds.16 mph36%29.83 "HgN/A
2:00 PM93 °FPassing clouds.18 mph39%29.86 "HgN/A
1:00 PM91 °FPassing clouds.16 mph44%29.89 "HgN/A
Weather by CustomWeather, © 2015

See weather overviewHow to use our weather pages